Location: Castifao
(42.5040°N, 9.1124°E)
Time: 18:28:17
(UTC+00:00)

Cosmos 1821 Rocket - Pass Details

Date: 23 January 2020
Orbit: 944 x 1005 km, 82.9° (Epoch: 26 February)

Event Time Altitude Azimuth Distance (km) Brightness Sun altitude
Rises 19:08:22 0° 194° (SSW) 3,717 7.2 -30.0°
Reaches altitude 10° 19:10:55 10° 197° (SSW) 2,768 6.5 -30.4°
Maximum altitude 19:17:15 66° 280° (W) 1,084 4.3 -31.6°
Enters shadow 19:22:03 18° 359° (N) 2,216 5.9 -32.5°
Exits shadow 19:24:04 - 3° (N) 2,945 6.5 -32.8°
Sets 19:26:06 0° 6° (N) 3,700 7.0 -33.2°
